VK5ARG-5 Weather Reports


time (UTC)temp
C
wind
direction
speed
KPH
gust
KPH
rain 1hr
cm
rain 24hr
cm
rain mn
cm
humidity
%
barometer
mb
20260503220523 10 290 30.6 43.5 0.05 0.10 0.10 99
20260503215528 10 297 32.2 45.1 0.05 0.08 0.08 99
20260503214525 10 297 32.2 41.8 0.05 0.05 0.05 99
20260503213542 10 297 30.6 38.6 0.03 0.05 0.05 99
20260503212526 10 294 27.4 38.6 0.03 0.05 0.05 99
20260503211522 10 295 25.7 32.2 0.03 0.05 0.05 99
20260503210527 10 290 27.4 38.6 0.03 0.03 0.03 99
20260503205523 10 291 29.0 40.2 0.00 0.03 0.03 99
20260503204528 10 293 30.6 41.8 0.00 0.03 0.03 99
20260503203546 10 292 32.2 41.8 0.00 0.03 0.03 99
20260503202542 10 295 32.2 45.1 0.00 0.00 0.00 99
20260503201526 10 294 32.2 45.1 0.00 0.00 0.00 98
20260503200522 10 293 29.0 38.6 0.00 0.00 0.00 98
20260503195527 10 291 29.0 38.6 0.00 0.00 0.00 98
20260503194525 10 290 27.4 37.0 0.00 0.00 0.00 98
20260503193528 10 292 29.0 38.6 0.00 0.00 0.00 98
20260503192525 10 289 25.7 33.8 0.00 0.00 0.00 97
20260503191521 10 288 32.2 43.5 0.00 0.00 0.00 97
20260503190546 10 290 27.4 38.6 0.00 0.00 0.00 97
20260503185523 10 288 30.6 38.6 0.00 0.00 0.00 97
20260503184527 10 289 30.6 45.1 0.00 0.00 0.00 97
20260503183524 10 292 33.8 48.3 0.00 0.00 0.00 96
20260503182528 10 293 33.8 43.5 0.00 0.00 0.00 95
20260503181525 10 291 30.6 43.5 0.00 0.00 0.00 94
20260503180521 10 294 30.6 37.0 0.00 0.00 0.00 94
20260503175526 10 295 30.6 40.2 0.00 0.00 0.00 94
20260503174522 10 297 30.6 41.8 0.00 0.00 0.00 94
20260503173526 10 298 32.2 43.5 0.00 0.00 0.00 95
20260503172544 10 295 29.0 37.0 0.00 0.00 0.00 94
20260503171528 10 294 24.1 32.2 0.00 0.00 0.00 94
20260503170546 10 300 27.4 38.6 0.00 0.00 0.00 94
20260503150523 10 295 29.0 40.2 0.00 0.00 0.00 90
20260503130522 10 290 22.5 37.0 0.00 0.00 0.00 87
20260503110520 11 293 16.1 22.5 0.00 0.00 0.00 89
20260503081527 12 286 22.5 33.8 0.00 0.03 0.00 83
20260503080523 12 295 25.7 37.0 0.00 0.03 0.00 79
20260503072526 13 290 30.6 45.1 0.00 0.05 0.00 72
20260503071522 14 290 35.4 45.1 0.00 0.05 0.00 71
20260503070526 13 297 35.4 43.5 0.00 0.05 0.00 72
20260503054523 15 294 38.6 51.5 0.00 0.08 0.00 63
20260503053528 15 291 40.2 57.9 0.00 0.08 0.00 62
20260503052525 15 286 43.5 56.3 0.00 0.08 0.00 61
20260503051542 15 287 37.0 49.9 0.00 0.08 0.00 61
20260503050547 15 286 37.0 51.5 0.00 0.08 0.00 61
20260503045522 15 279 41.8 56.3 0.00 0.08 0.00 60
20260503044527 15 282 49.9 62.8 0.00 0.10 0.00 60
20260503043523 15 281 43.5 54.7 0.00 0.10 0.00 61
20260503042528 14 294 32.2 51.5 0.00 0.13 0.00 68
20260503041525 14 296 35.4 48.3 0.00 0.15 0.00 70
20260503040521 15 294 38.6 51.5 0.00 0.15 0.00 66
20260503035526 15 290 40.2 56.3 0.00 0.18 0.00 66
20260503034522 15 289 43.5 57.9 0.00 0.18 0.00 64
20260503033527 14 286 53.1 69.2 0.00 0.18 0.00 65
20260503032522 14 285 48.3 64.4 0.00 0.20 0.00 64
20260503031550 15 288 43.5 57.9 0.00 0.23 0.00 64
20260503030546 14 284 56.3 74.0 0.00 0.25 0.00 64
20260503025520 14 285 45.1 61.2 0.00 0.25 0.00 64
20260503024547 13 288 45.1 64.4 0.00 0.25 0.00 66
20260503023543 14 285 49.9 66.0 0.00 0.25 0.00 65
20260503022527 15 283 53.1 74.0 0.00 0.25 0.00 62
20260503021524 15 283 49.9 64.4 0.00 0.25 0.00 64
20260503020529 14 289 51.5 67.6 0.00 0.25 0.00 65
20260503015606 15 287 45.1 64.4 0.00 0.25 0.00 66
20260503014520 14 289 45.1 61.2 0.00 0.25 0.00 66
20260503013547 13 288 49.9 66.0 0.00 0.25 0.00 66
20260503012522 13 292 46.7 62.8 0.00 0.25 0.00 69
20260503011527 13 292 40.2 54.7 0.00 0.25 0.00 78
20260503010523 12 297 37.0 53.1 0.00 0.25 0.00 83
20260503005550 12 297 37.0 49.9 0.00 0.25 0.00 81
20260503004545 12 299 37.0 49.9 0.00 0.25 0.00 82
20260503003520 12 298 38.6 54.7 0.00 0.25 0.00 82
20260503002547 12 305 40.2 51.5 0.00 0.25 0.00 82
20260503001522 12 308 40.2 51.5 0.00 0.25 0.00 84
20260503000528 12 308 37.0 54.7 0.00 0.25 0.00 83
20260502235523 11 312 37.0 48.3 0.00 0.25 0.25 85
20260502234549 11 311 37.0 49.9 0.00 0.25 0.25 87
20260502233546 11 311 30.6 41.8 0.00 0.25 0.25 88
20260502232542 11 309 33.8 45.1 0.00 0.25 0.25 89
20260502231526 10 315 29.0 41.8 0.00 0.25 0.25 90
20260502230522 10 312 29.0 40.2 0.00 0.25 0.25 90
20260502225526 10 313 32.2 41.8 0.00 0.25 0.25 90
20260502224523 10 310 30.6 40.2 0.00 0.25 0.25 91
20260502223549 10 307 32.2 43.5 0.00 0.25 0.25 91
20260502222525 10 303 32.2 43.5 0.00 0.25 0.25 91
20260502221520 10 306 38.6 51.5 0.00 0.25 0.25 92